This demonstration page uses our WeatherBlox Daily Observations layout. Learn more.

Left ArrowRight Arrow

Hourly Observations for August 13, 2018

Temp ( °F °C ) Dew Point ( °F °C ) Humidity (%) Winds ( mph kmh ) Pressure ( in mb ) Visibility ( mi km ) Precip ( " mm )
12:52 am 00:52 Clear 74 23.3 66 18.9 76 76 SSE 7 11 30.05 1018 10 16 0.00 0.00
1:52 am 01:52 Clear 73 22.8 66 18.9 79 79 SSE 7 11 30.04 1017 10 16 0.00 0.00
2:52 am 02:52 Clear 72 22.2 67 19.4 84 84 SSE 7 11 30.04 1017 10 16 0.00 0.00
3:52 am 03:52 Clear 71 21.7 66 18.9 84 84 SSE 6 9 30.05 1018 10 16 0.00 0.00
4:52 am 04:52 Clear 71 21.7 66 18.9 84 84 ESE 5 7 30.06 1018 10 16 0.00 0.00
5:52 am 05:52 Clear 69 20.6 66 18.9 90 90 SSE 5 7 30.06 1018 9 14 0.00 0.00
6:52 am 06:52 Partly Cloudy 71 21.7 67 19.4 87 87 SSE 7 11 30.07 1018 7 11 0.00 0.00
7:52 am 07:52 Sunny 73 22.8 69 20.6 87 87 SSE 9 15 30.06 1018 8 13 0.00 0.00
8:52 am 08:52 Sunny 77 25 69 20.6 77 77 SSE 8 13 30.06 1018 10 16 0.00 0.00
9:52 am 09:52 Sunny 79 26.1 67 19.4 67 67 SE 7 11 30.05 1018 10 16 0.00 0.00
10:52 am 10:52 Sunny 83 28.3 68 20 61 61 SSE 8 13 30.04 1017 10 16 0.00 0.00
11:52 am 11:52 Mostly Sunny 86 30 69 20.6 57 57 SE 9 15 30.04 1017 10 16 0.00 0.00
12:52 pm 12:52 Mostly Sunny 87 30.6 67 19.4 51 51 SE 12 19 30.01 1016 10 16 0.00 0.00
1:52 pm 13:52 Mostly Sunny 89 31.7 67 19.4 48 48 SSE 16 26 29.99 1016 10 16 0.00 0.00
2:52 pm 14:52 Mostly Sunny 89 31.7 67 19.4 48 48 SE 10 17 29.97 1015 10 16 0.00 0.03
3:52 pm 15:52 Mostly Cloudy 81 27.2 67 19.4 62 62 S 21 33 29.98 1015 10 16 0.00 0.00
4:04 pm 16:04 Mostly Cloudy 78 25.6 67 19.4 69 69 SSW 15 24 29.97 1015 10 16 0.00 0.00
4:26 pm 16:26 Cloudy with Heavy Rain 73 22.8 69 20.6 87 87 SE 21 33 30.00 1016 2 2 0.00 0.03
4:35 pm 16:35 Cloudy with Heavy Rain 72 22.2 68 20 87 87 SE 13 20 30.00 1016 1 1 0.22 5.59
4:38 pm 16:38 Cloudy with Heavy Rain 73 22.8 69 20.6 87 87 SE 13 20 30.00 1016 1 2 0.27 6.86
4:46 pm 16:46 Cloudy with Light Rain 73 23 70 21 89 89 SSE 12 19 29.97 1015 3 5 0.29 7.37
4:52 pm 16:52 Cloudy with Light Rain 75 23.9 70 21.1 84 84 SE 10 17 29.98 1015 9 14 0.29 7.37
5:52 pm 17:52 Mostly Cloudy 75 23.9 71 21.7 88 88 SE 12 19 29.98 1015 10 16 0.00 0.03
6:52 pm 18:52 Mostly Cloudy with Light Rain 74 23.3 71 21.7 91 91 SSE 10 17 29.99 1016 7 11 0.03 0.76
7:52 pm 19:52 Partly Cloudy 73 22.8 70 21.1 90 90 SSE 7 11 29.98 1015 10 16 0.00 0.03
8:52 pm 20:52 Clear 73 22.8 70 21.1 90 90 SSE 7 11 29.96 1015 10 16 0.00 0.00
9:52 pm 21:52 Clear 72 22.2 70 21.1 94 94 ESE 5 7 29.96 1015 10 16 0.00 0.00
10:52 pm 22:52 Clear 72 22.2 70 21.1 94 94 SE 7 11 29.97 1015 10 16 0.00 0.00
11:12 pm 23:12 Mostly Clear 73 22.8 70 21.1 90 90 SE 8 13 29.94 1014 10 16 0.00 0.00
11:38 pm 23:38 Mostly Cloudy 73 22.8 70 21.1 90 90 SSE 9 15 30.00 1016 10 16 0.00 0.00
11:52 pm 23:52 Mostly Cloudy 73 22.8 70 21.1 90 90 SSE 10 17 29.97 1015 10 16 0.00 0.00

Powered by AerisWeather